Location: Newark
(54.5667°N, 9.6500°E)
Time: 05:24:18
(UTC+00:00)

N. Korean satellite - Visible Passes

Search period start: 24 October 2019 00:00
Search period end: 03 November 2019 00:00
Orbit: 455 x 508 km, 97.2° (Epoch: 23 October)

Date Brightness Start Highest point End Pass type
(mag) Time Alt. Az. Time Alt. Az. Time Alt. Az.
24 Oct 9.3 04:39:01 10° NE 04:42:02 24° E 04:45:05 10° SSE visible
24 Oct 8.7 16:54:25 10° SSW 16:57:32 32° W 17:00:44 10° NNW visible
25 Oct 10.1 04:14:26 10° NE 04:16:30 14° E 04:18:34 10° ESE visible
26 Oct 7.1 05:21:21 10° NNE 05:25:00 66° ESE 05:28:40 10° S visible
26 Oct 10.2 17:39:07 10° WSW 17:40:40 12° W 17:42:15 10° WNW visible
27 Oct 8.5 04:56:11 10° NNE 04:59:36 36° E 05:03:02 10° SSE visible
27 Oct 9.5 17:12:20 10° SW 17:15:05 22° W 17:17:53 10° NW visible
28 Oct 9.5 04:31:16 10° NE 04:34:07 21° E 04:36:58 10° SE visible
28 Oct 8.2 16:46:19 10° SSW 16:49:36 38° W 16:52:57 10° NNW visible
29 Oct 10.3 04:06:56 10° ENE 04:08:32 12° E 04:10:08 10° ESE visible
30 Oct 7.5 05:13:27 10° NNE 05:17:05 55° E 05:20:44 10° S visible
30 Oct 10.0 17:30:34 10° SW 17:32:40 15° W 17:34:47 10° NW visible
31 Oct 8.8 04:48:20 10° NNE 04:51:39 30° E 04:54:59 10° SSE visible
31 Oct 9.1 17:04:06 10° SSW 17:07:05 26° W 17:10:09 10° NW visible
01 Nov 9.8 04:23:31 10° NE 04:26:08 18° E 04:28:45 10° SE visible
01 Nov 7.8 16:38:13 10° S 16:41:37 47° W 16:45:06 10° NNW visible
02 Nov 10.5 03:59:45 10° ENE 04:00:31 10° E 04:01:16 10° E visible
02 Nov 6.7 05:30:48 10° NNE 05:34:31 85° ESE 05:38:15 10° SSW visible
02 Nov 10.5 17:49:46 10° W 17:50:15 10° W 17:50:43 10° WNW visible
